Year,Month,Day,Hour,Minute,Value (Times are PST for insolation in W/m^2)
2014,12,07,00,00,0.00
2014,12,07,00,01,0.00
2014,12,07,00,02,0.00
2014,12,07,00,03,0.00
2014,12,07,00,04,0.00
2014,12,07,00,05,0.00
2014,12,07,00,06,0.00
2014,12,07,00,07,0.00
2014,12,07,00,08,0.00
2014,12,07,00,09,0.00
2014,12,07,00,10,0.00
2014,12,07,00,11,0.00
2014,12,07,00,12,0.00
2014,12,07,00,13,0.00
2014,12,07,00,14,0.00
2014,12,07,00,15,0.00
2014,12,07,00,16,0.00
2014,12,07,00,17,0.00
2014,12,07,00,18,0.00
2014,12,07,00,19,0.00
2014,12,07,00,20,0.00
2014,12,07,00,21,0.00
2014,12,07,00,22,0.00
2014,12,07,00,23,0.00
2014,12,07,00,24,0.00
2014,12,07,00,25,0.00
2014,12,07,00,26,0.00
2014,12,07,00,27,0.00
2014,12,07,00,28,0.00
2014,12,07,00,29,0.00
2014,12,07,00,30,0.00
2014,12,07,00,31,0.00
2014,12,07,00,32,0.00
2014,12,07,00,33,0.00
2014,12,07,00,34,0.00
2014,12,07,00,35,0.00
2014,12,07,00,36,0.00
2014,12,07,00,37,0.00
2014,12,07,00,38,0.00
2014,12,07,00,39,0.00
2014,12,07,00,40,0.00
2014,12,07,00,41,0.00
2014,12,07,00,42,0.00
2014,12,07,00,43,0.00
2014,12,07,00,44,0.00
2014,12,07,00,45,0.00
2014,12,07,00,46,0.00
2014,12,07,00,47,0.00
2014,12,07,00,48,0.00
2014,12,07,00,49,0.00
2014,12,07,00,50,0.00
2014,12,07,00,51,0.00
2014,12,07,00,52,0.00
2014,12,07,00,53,0.00
2014,12,07,00,54,0.00
2014,12,07,00,55,0.00
2014,12,07,00,56,0.00
2014,12,07,00,57,0.00
2014,12,07,00,58,0.00
2014,12,07,00,59,0.00
2014,12,07,01,00,0.00
2014,12,07,01,01,0.00
2014,12,07,01,02,0.00
2014,12,07,01,03,0.00
2014,12,07,01,04,0.00
2014,12,07,01,05,0.00
2014,12,07,01,06,0.00
2014,12,07,01,07,0.00
2014,12,07,01,08,0.00
2014,12,07,01,09,0.00
2014,12,07,01,10,0.00
2014,12,07,01,11,0.00
2014,12,07,01,12,0.00
2014,12,07,01,13,0.00
2014,12,07,01,14,0.00
2014,12,07,01,15,0.00
2014,12,07,01,16,0.00
2014,12,07,01,17,0.00
2014,12,07,01,18,0.00
2014,12,07,01,19,0.00
2014,12,07,01,20,0.00
2014,12,07,01,21,0.00
2014,12,07,01,22,0.00
2014,12,07,01,23,0.00
2014,12,07,01,24,0.00
2014,12,07,01,25,0.00
2014,12,07,01,26,0.00
2014,12,07,01,27,0.00
2014,12,07,01,28,0.00
2014,12,07,01,29,0.00
2014,12,07,01,30,0.00
2014,12,07,01,31,0.00
2014,12,07,01,32,0.00
2014,12,07,01,33,0.00
2014,12,07,01,34,0.00
2014,12,07,01,35,0.00
2014,12,07,01,36,0.00
2014,12,07,01,37,0.00
2014,12,07,01,38,0.00
2014,12,07,01,39,0.00
2014,12,07,01,40,0.00
2014,12,07,01,41,0.00
2014,12,07,01,42,0.00
2014,12,07,01,43,0.00
2014,12,07,01,44,0.00
2014,12,07,01,45,0.00
2014,12,07,01,46,0.00
2014,12,07,01,47,0.00
2014,12,07,01,48,0.00
2014,12,07,01,49,0.00
2014,12,07,01,50,0.00
2014,12,07,01,51,0.00
2014,12,07,01,52,0.00
2014,12,07,01,53,0.00
2014,12,07,01,54,0.00
2014,12,07,01,55,0.00
2014,12,07,01,56,0.00
2014,12,07,01,57,0.00
2014,12,07,01,58,0.00
2014,12,07,01,59,0.00
2014,12,07,02,00,0.00
2014,12,07,02,01,0.00
2014,12,07,02,02,0.00
2014,12,07,02,03,0.00
2014,12,07,02,04,0.00
2014,12,07,02,05,0.00
2014,12,07,02,06,0.00
2014,12,07,02,07,0.00
2014,12,07,02,08,0.00
2014,12,07,02,09,0.00
2014,12,07,02,10,0.00
2014,12,07,02,11,0.00
2014,12,07,02,12,0.00
2014,12,07,02,13,0.00
2014,12,07,02,14,0.00
2014,12,07,02,15,0.00
2014,12,07,02,16,0.00
2014,12,07,02,17,0.00
2014,12,07,02,18,0.00
2014,12,07,02,19,0.00
2014,12,07,02,20,0.00
2014,12,07,02,21,0.00
2014,12,07,02,22,0.00
2014,12,07,02,23,0.00
2014,12,07,02,24,0.00
2014,12,07,02,25,0.00
2014,12,07,02,26,0.00
2014,12,07,02,27,0.00
2014,12,07,02,28,0.00
2014,12,07,02,29,0.00
2014,12,07,02,30,0.00
2014,12,07,02,31,0.00
2014,12,07,02,32,0.00
2014,12,07,02,33,0.00
2014,12,07,02,34,0.00
2014,12,07,02,35,0.00
2014,12,07,02,36,0.00
2014,12,07,02,37,0.00
2014,12,07,02,38,0.00
2014,12,07,02,39,0.00
2014,12,07,02,40,0.00
2014,12,07,02,41,0.00
2014,12,07,02,42,0.00
2014,12,07,02,43,0.00
2014,12,07,02,44,0.00
2014,12,07,02,45,0.00
2014,12,07,02,46,0.00
2014,12,07,02,47,0.00
2014,12,07,02,48,0.00
2014,12,07,02,49,0.00
2014,12,07,02,50,0.00
2014,12,07,02,51,0.00
2014,12,07,02,52,0.00
2014,12,07,02,53,0.00
2014,12,07,02,54,0.00
2014,12,07,02,55,0.00
2014,12,07,02,56,0.00
2014,12,07,02,57,0.00
2014,12,07,02,58,0.00
2014,12,07,02,59,0.00
2014,12,07,03,00,0.00
2014,12,07,03,01,0.00
2014,12,07,03,02,0.00
2014,12,07,03,03,0.00
2014,12,07,03,04,0.00
2014,12,07,03,05,0.00
2014,12,07,03,06,0.00
2014,12,07,03,07,0.00
2014,12,07,03,08,0.00
2014,12,07,03,09,0.00
2014,12,07,03,10,0.00
2014,12,07,03,11,0.00
2014,12,07,03,12,0.00
2014,12,07,03,13,0.00
2014,12,07,03,14,0.00
2014,12,07,03,15,0.00
2014,12,07,03,16,0.00
2014,12,07,03,17,0.00
2014,12,07,03,18,0.00
2014,12,07,03,19,0.00
2014,12,07,03,20,0.00
2014,12,07,03,21,0.00
2014,12,07,03,22,0.00
2014,12,07,03,23,0.00
2014,12,07,03,24,0.00
2014,12,07,03,25,0.00
2014,12,07,03,26,0.00
2014,12,07,03,27,0.00
2014,12,07,03,28,0.00
2014,12,07,03,29,0.00
2014,12,07,03,30,0.00
2014,12,07,03,31,0.00
2014,12,07,03,32,0.00
2014,12,07,03,33,0.00
2014,12,07,03,34,0.00
2014,12,07,03,35,0.00
2014,12,07,03,36,0.00
2014,12,07,03,37,0.00
2014,12,07,03,38,0.00
2014,12,07,03,39,0.00
2014,12,07,03,40,0.00
2014,12,07,03,41,0.00
2014,12,07,03,42,0.00
2014,12,07,03,43,0.00
2014,12,07,03,44,0.00
2014,12,07,03,45,0.00
2014,12,07,03,46,0.00
2014,12,07,03,47,0.00
2014,12,07,03,48,0.00
2014,12,07,03,49,0.00
2014,12,07,03,50,0.00
2014,12,07,03,51,0.00
2014,12,07,03,52,0.00
2014,12,07,03,53,0.00
2014,12,07,03,54,0.00
2014,12,07,03,55,0.00
2014,12,07,03,56,0.00
2014,12,07,03,57,0.00
2014,12,07,03,58,0.00
2014,12,07,03,59,0.00
2014,12,07,04,00,0.00
2014,12,07,04,01,0.00
2014,12,07,04,02,0.00
2014,12,07,04,03,0.00
2014,12,07,04,04,0.00
2014,12,07,04,05,0.00
2014,12,07,04,06,0.00
2014,12,07,05,02,0.00
2014,12,07,05,03,0.00
2014,12,07,05,04,0.00
2014,12,07,05,05,0.00
2014,12,07,05,06,0.00
2014,12,07,05,07,0.00
2014,12,07,05,08,0.00
2014,12,07,05,09,0.00
2014,12,07,05,10,0.00
2014,12,07,05,11,0.00
2014,12,07,05,12,0.00
2014,12,07,05,13,0.00
2014,12,07,05,14,0.00
2014,12,07,05,15,0.00
2014,12,07,05,16,0.00
2014,12,07,05,17,0.00
2014,12,07,05,18,0.00
2014,12,07,05,19,0.00
2014,12,07,05,20,0.00
2014,12,07,05,21,0.00
2014,12,07,05,22,0.00
2014,12,07,05,23,0.00
2014,12,07,05,24,0.00
2014,12,07,05,25,0.00
2014,12,07,05,26,0.00
2014,12,07,05,27,0.00
2014,12,07,05,28,0.00
2014,12,07,05,29,0.00
2014,12,07,05,30,0.00
2014,12,07,05,31,0.00
2014,12,07,05,32,0.00
2014,12,07,05,33,0.00
2014,12,07,05,34,0.00
2014,12,07,05,35,0.00
2014,12,07,05,36,0.00
2014,12,07,05,37,0.00
2014,12,07,05,38,0.00
2014,12,07,05,39,0.00
2014,12,07,05,40,0.00
2014,12,07,05,41,0.00
2014,12,07,05,42,0.00
2014,12,07,05,43,0.00
2014,12,07,05,44,0.00
2014,12,07,05,45,0.00
2014,12,07,05,46,0.00
2014,12,07,05,47,0.00
2014,12,07,05,48,0.00
2014,12,07,05,49,0.00
2014,12,07,05,50,0.00
2014,12,07,05,51,0.00
2014,12,07,05,52,0.00
2014,12,07,05,53,0.00
2014,12,07,05,54,0.00
2014,12,07,05,55,0.00
2014,12,07,05,56,0.00
2014,12,07,05,57,0.00
2014,12,07,05,58,0.00
2014,12,07,05,59,0.00
2014,12,07,06,00,0.00
2014,12,07,06,01,0.00
2014,12,07,06,02,0.00
2014,12,07,06,03,0.00
2014,12,07,06,04,0.00
2014,12,07,06,05,0.00
2014,12,07,06,06,0.00
2014,12,07,06,07,0.00
2014,12,07,06,08,0.00
2014,12,07,06,09,0.00
2014,12,07,06,10,0.00
2014,12,07,06,11,0.00
2014,12,07,06,12,0.00
2014,12,07,06,13,0.00
2014,12,07,06,14,0.00
2014,12,07,06,15,0.00
2014,12,07,06,16,0.00
2014,12,07,06,17,0.00
2014,12,07,06,18,0.00
2014,12,07,06,19,0.00
2014,12,07,06,20,0.00
2014,12,07,06,21,0.00
2014,12,07,06,22,0.00
2014,12,07,06,23,0.00
2014,12,07,06,24,0.00
2014,12,07,06,25,0.00
2014,12,07,06,26,0.00
2014,12,07,06,27,0.00
2014,12,07,06,28,0.00
2014,12,07,06,29,0.00
2014,12,07,06,30,0.00
2014,12,07,06,31,0.00
2014,12,07,06,32,0.00
2014,12,07,06,33,0.00
2014,12,07,06,34,0.00
2014,12,07,06,35,0.00
2014,12,07,06,36,0.00
2014,12,07,06,37,0.00
2014,12,07,06,38,0.00
2014,12,07,06,39,0.00
2014,12,07,06,40,0.00
2014,12,07,06,41,0.00
2014,12,07,06,42,0.00
2014,12,07,06,43,0.00
2014,12,07,06,44,0.00
2014,12,07,06,45,0.00
2014,12,07,06,46,0.00
2014,12,07,06,47,0.00
2014,12,07,06,48,0.00
2014,12,07,06,49,0.00
2014,12,07,06,50,0.00
2014,12,07,06,51,0.00
2014,12,07,06,52,0.00
2014,12,07,06,53,0.00
2014,12,07,06,54,0.00
2014,12,07,06,55,0.00
2014,12,07,06,56,0.00
2014,12,07,06,57,0.00
2014,12,07,06,58,0.00
2014,12,07,06,59,0.00
2014,12,07,07,00,0.00
2014,12,07,07,01,0.00
2014,12,07,07,02,0.00
2014,12,07,07,03,0.00
2014,12,07,07,04,0.00
2014,12,07,07,05,0.00
2014,12,07,07,06,0.00
2014,12,07,07,07,0.00
2014,12,07,07,08,0.00
2014,12,07,07,09,0.00
2014,12,07,07,10,0.00
2014,12,07,07,11,0.00
2014,12,07,07,12,0.00
2014,12,07,07,13,0.00
2014,12,07,07,14,0.00
2014,12,07,07,15,0.00
2014,12,07,07,16,0.00
2014,12,07,07,17,0.00
2014,12,07,07,18,0.00
2014,12,07,07,19,0.00
2014,12,07,07,20,0.00
2014,12,07,07,21,0.00
2014,12,07,07,22,0.00
2014,12,07,07,23,0.00
2014,12,07,07,24,0.00
2014,12,07,07,25,0.00
2014,12,07,07,26,0.00
2014,12,07,07,27,0.00
2014,12,07,07,28,0.00
2014,12,07,07,29,0.00
2014,12,07,07,30,0.00
2014,12,07,07,31,0.00
2014,12,07,07,32,0.00
2014,12,07,07,33,0.00
2014,12,07,07,34,0.00
2014,12,07,07,35,0.00
2014,12,07,07,36,0.00
2014,12,07,07,37,0.00
2014,12,07,07,38,0.00
2014,12,07,07,39,0.00
2014,12,07,07,40,0.00
2014,12,07,07,41,0.00
2014,12,07,07,42,0.00
2014,12,07,07,43,0.00
2014,12,07,07,44,0.00
2014,12,07,07,45,0.00
2014,12,07,07,46,0.00
2014,12,07,07,47,0.00
2014,12,07,07,48,0.00
2014,12,07,07,49,0.00
2014,12,07,07,50,0.00
2014,12,07,07,51,0.00
2014,12,07,07,52,0.00
2014,12,07,07,53,0.00
2014,12,07,07,54,0.00
2014,12,07,07,55,0.00
2014,12,07,07,56,0.00
2014,12,07,07,57,0.00
2014,12,07,07,58,0.00
2014,12,07,07,59,0.00
2014,12,07,08,00,0.00
2014,12,07,08,01,0.00
2014,12,07,08,02,0.00
2014,12,07,08,03,0.00
2014,12,07,08,04,0.00
2014,12,07,08,05,0.00
2014,12,07,08,06,0.00
2014,12,07,08,07,0.00
2014,12,07,08,08,0.00
2014,12,07,08,09,0.00
2014,12,07,08,10,0.00
2014,12,07,08,11,0.00
2014,12,07,08,12,0.00
2014,12,07,08,13,0.00
2014,12,07,08,14,0.00
2014,12,07,08,15,0.00
2014,12,07,08,16,0.00
2014,12,07,08,17,0.00
2014,12,07,08,18,0.00
2014,12,07,08,19,0.00
2014,12,07,08,20,0.00
2014,12,07,08,21,0.00
2014,12,07,08,22,0.00
2014,12,07,08,23,0.00
2014,12,07,08,24,0.00
2014,12,07,08,25,0.00
2014,12,07,08,26,0.00
2014,12,07,08,27,0.00
2014,12,07,08,28,0.00
2014,12,07,08,29,0.00
2014,12,07,08,30,0.00
2014,12,07,08,31,0.00
2014,12,07,08,32,4.30
2014,12,07,08,33,5.00
2014,12,07,08,34,5.40
2014,12,07,08,35,7.00
2014,12,07,08,36,7.00
2014,12,07,08,37,5.70
2014,12,07,08,38,6.50
2014,12,07,08,39,7.00
2014,12,07,08,40,5.00
2014,12,07,08,41,5.50
2014,12,07,08,42,7.00
2014,12,07,08,43,7.00
2014,12,07,08,44,7.00
2014,12,07,08,45,7.00
2014,12,07,08,46,7.00
2014,12,07,08,47,8.70
2014,12,07,08,48,7.00
2014,12,07,08,49,7.00
2014,12,07,08,50,7.00
2014,12,07,08,51,7.00
2014,12,07,08,52,7.00
2014,12,07,08,53,7.00
2014,12,07,08,54,7.00
2014,12,07,08,55,7.00
2014,12,07,08,56,7.00
2014,12,07,08,57,7.00
2014,12,07,08,58,7.00
2014,12,07,08,59,7.00
2014,12,07,09,00,7.00
2014,12,07,09,01,7.00
2014,12,07,09,02,7.00
2014,12,07,09,03,7.70
2014,12,07,09,04,9.00
2014,12,07,09,05,10.30
2014,12,07,09,06,9.50
2014,12,07,09,07,9.00
2014,12,07,09,08,11.00
2014,12,07,09,09,11.30
2014,12,07,09,10,12.00
2014,12,07,09,11,11.50
2014,12,07,09,12,11.60
2014,12,07,09,13,11.30
2014,12,07,09,14,11.00
2014,12,07,09,15,12.30
2014,12,07,09,16,14.50
2014,12,07,09,17,15.30
2014,12,07,09,18,13.00
2014,12,07,09,19,13.20
2014,12,07,09,20,17.80
2014,12,07,09,21,19.00
2014,12,07,09,22,18.00
2014,12,07,09,23,17.50
2014,12,07,09,24,15.30
2014,12,07,09,25,14.00
2014,12,07,09,26,14.00
2014,12,07,09,27,12.50
2014,12,07,09,28,13.70
2014,12,07,09,29,14.20
2014,12,07,09,30,16.00
2014,12,07,09,31,16.70
2014,12,07,09,32,18.50
2014,12,07,09,33,17.20
2014,12,07,09,34,14.50
2014,12,07,09,35,12.30
2014,12,07,09,36,11.90
2014,12,07,09,37,11.20
2014,12,07,09,38,13.50
2014,12,07,09,39,17.00
2014,12,07,09,40,18.00
2014,12,07,09,41,16.50
2014,12,07,09,42,16.00
2014,12,07,09,43,18.10
2014,12,07,09,44,19.90
2014,12,07,09,45,23.00
2014,12,07,09,46,22.00
2014,12,07,09,47,21.00
2014,12,07,09,48,19.50
2014,12,07,09,49,19.00
2014,12,07,09,50,23.10
2014,12,07,09,51,25.00
2014,12,07,09,52,23.50
2014,12,07,09,53,19.60
2014,12,07,09,54,18.60
2014,12,07,09,55,20.50
2014,12,07,09,56,22.70
2014,12,07,09,57,22.60
2014,12,07,09,58,19.00
2014,12,07,09,59,19.70
2014,12,07,10,00,22.00
2014,12,07,10,01,21.80
2014,12,07,10,02,18.80
2014,12,07,10,03,18.00
2014,12,07,10,04,19.40
2014,12,07,10,05,23.50
2014,12,07,10,06,24.20
2014,12,07,10,07,22.00
2014,12,07,10,08,21.00
2014,12,07,10,09,21.00
2014,12,07,10,10,21.00
2014,12,07,10,11,20.80
2014,12,07,10,12,19.00
2014,12,07,10,13,19.00
2014,12,07,10,14,19.00
2014,12,07,10,15,20.20
2014,12,07,10,16,21.00
2014,12,07,10,17,21.00
2014,12,07,10,18,17.80
2014,12,07,10,19,16.70
2014,12,07,10,20,19.00
2014,12,07,10,21,18.50
2014,12,07,10,22,16.80
2014,12,07,10,23,14.50
2014,12,07,10,24,15.80
2014,12,07,10,25,18.90
2014,12,07,10,26,18.30
2014,12,07,10,27,15.30
2014,12,07,10,28,15.00
2014,12,07,10,29,16.00
2014,12,07,10,30,17.50
2014,12,07,10,31,18.00
2014,12,07,10,32,18.00
2014,12,07,10,33,18.00
2014,12,07,10,34,18.00
2014,12,07,10,35,19.60
2014,12,07,10,36,21.00
2014,12,07,10,37,19.50
2014,12,07,10,38,19.00
2014,12,07,10,39,16.20
2014,12,07,10,40,18.70
2014,12,07,10,41,22.90
2014,12,07,10,42,27.00
2014,12,07,10,43,26.70
2014,12,07,10,44,23.80
2014,12,07,10,45,23.00
2014,12,07,10,46,26.20
2014,12,07,10,47,27.60
2014,12,07,10,48,25.60
2014,12,07,10,49,25.50
2014,12,07,10,50,29.70
2014,12,07,10,51,37.20
2014,12,07,10,52,39.90
2014,12,07,10,53,33.10
2014,12,07,10,54,33.80
2014,12,07,10,55,43.30
2014,12,07,10,56,50.00
2014,12,07,10,57,49.80
2014,12,07,10,58,46.80
2014,12,07,10,59,50.30
2014,12,07,11,00,67.30
2014,12,07,11,01,69.20
2014,12,07,11,02,66.30
2014,12,07,11,03,60.30
2014,12,07,11,04,51.70
2014,12,07,11,05,46.80
2014,12,07,11,06,52.00
2014,12,07,11,07,53.70
2014,12,07,11,08,50.50
2014,12,07,11,09,49.00
2014,12,07,11,10,46.40
2014,12,07,11,11,42.80
2014,12,07,11,12,45.00
2014,12,07,11,13,48.60
2014,12,07,11,14,53.10
2014,12,07,11,15,54.00
2014,12,07,11,16,53.60
2014,12,07,11,17,52.00
2014,12,07,11,18,52.80
2014,12,07,11,19,58.40
2014,12,07,11,20,60.00
2014,12,07,11,21,55.70
2014,12,07,11,22,53.00
2014,12,07,11,23,52.30
2014,12,07,11,24,52.50
2014,12,07,11,25,57.60
2014,12,07,11,26,61.50
2014,12,07,11,27,60.20
2014,12,07,11,28,60.20
2014,12,07,11,29,61.50
2014,12,07,11,30,61.10
2014,12,07,11,31,65.90
2014,12,07,11,32,67.80
2014,12,07,11,33,62.10
2014,12,07,11,34,50.60
2014,12,07,11,35,42.40
2014,12,07,11,36,46.70
2014,12,07,11,37,50.30
2014,12,07,11,38,53.00
2014,12,07,11,39,54.80
2014,12,07,11,40,62.70
2014,12,07,11,41,66.70
2014,12,07,11,42,57.60
2014,12,07,11,43,56.10
2014,12,07,11,44,65.00
2014,12,07,11,45,63.70
2014,12,07,11,46,55.60
2014,12,07,11,47,50.30
2014,12,07,11,48,49.00
2014,12,07,11,49,53.40
2014,12,07,11,50,57.60
2014,12,07,11,51,58.30
2014,12,07,11,52,68.30
2014,12,07,11,53,84.10
2014,12,07,11,54,97.30
2014,12,07,11,55,89.80
2014,12,07,11,56,73.10
2014,12,07,11,57,77.50
2014,12,07,11,58,75.70
2014,12,07,11,59,71.90
2014,12,07,12,00,75.90
2014,12,07,12,01,82.10
2014,12,07,12,02,103.60
2014,12,07,12,03,108.20
2014,12,07,12,04,100.70
2014,12,07,12,05,99.60
2014,12,07,12,06,108.30
2014,12,07,12,07,116.10
2014,12,07,12,08,106.10
2014,12,07,12,09,102.00
2014,12,07,12,10,94.50
2014,12,07,12,11,89.90
2014,12,07,12,12,86.00
2014,12,07,12,13,83.50
2014,12,07,12,14,84.00
2014,12,07,12,15,82.30
2014,12,07,12,16,71.30
2014,12,07,12,17,71.60
2014,12,07,12,18,67.40
2014,12,07,12,19,63.70
2014,12,07,12,20,69.40
2014,12,07,12,21,70.80
2014,12,07,12,22,71.50
2014,12,07,12,23,76.20
2014,12,07,12,24,70.10
2014,12,07,12,25,69.20
2014,12,07,12,26,68.90
2014,12,07,12,27,62.80
2014,12,07,12,28,64.50
2014,12,07,12,29,83.10
2014,12,07,12,30,84.60
2014,12,07,12,31,69.20
2014,12,07,12,32,63.90
2014,12,07,12,33,68.90
2014,12,07,12,34,76.30
2014,12,07,12,35,73.60
2014,12,07,12,36,64.10
2014,12,07,12,37,58.60
2014,12,07,12,38,62.50
2014,12,07,12,39,68.60
2014,12,07,12,40,65.30
2014,12,07,12,41,63.40
2014,12,07,12,42,70.30
2014,12,07,12,43,70.30
2014,12,07,12,44,59.70
2014,12,07,12,45,49.00
2014,12,07,12,46,45.60
2014,12,07,12,47,44.00
2014,12,07,12,48,43.00
2014,12,07,12,49,40.70
2014,12,07,12,50,37.80
2014,12,07,12,51,37.00
2014,12,07,12,52,37.30
2014,12,07,12,53,40.00
2014,12,07,12,54,38.10
2014,12,07,12,55,34.10
2014,12,07,12,56,34.20
2014,12,07,12,57,38.00
2014,12,07,12,58,45.00
2014,12,07,12,59,39.70
2014,12,07,13,00,37.40
2014,12,07,13,01,48.60
2014,12,07,13,02,52.00
2014,12,07,13,03,51.00
2014,12,07,13,04,48.00
2014,12,07,13,05,39.90
2014,12,07,13,06,39.00
2014,12,07,13,07,40.60
2014,12,07,13,08,46.30
2014,12,07,13,09,45.60
2014,12,07,13,10,39.90
2014,12,07,13,11,35.50
2014,12,07,13,12,39.40
2014,12,07,13,13,42.70
2014,12,07,13,14,50.30
2014,12,07,13,15,54.00
2014,12,07,13,16,50.10
2014,12,07,13,17,42.40
2014,12,07,13,18,44.40
2014,12,07,13,19,50.40
2014,12,07,13,20,53.90
2014,12,07,13,21,54.90
2014,12,07,13,22,57.30
2014,12,07,13,23,55.00
2014,12,07,13,24,53.40
2014,12,07,13,25,47.80
2014,12,07,13,26,39.80
2014,12,07,13,27,37.60
2014,12,07,13,28,45.60
2014,12,07,13,29,51.70
2014,12,07,13,30,52.00
2014,12,07,13,31,48.50
2014,12,07,13,32,48.50
2014,12,07,13,33,55.00
2014,12,07,13,34,52.30
2014,12,07,13,35,46.70
2014,12,07,13,36,46.00
2014,12,07,13,37,46.00
2014,12,07,13,38,44.80
2014,12,07,13,39,44.00
2014,12,07,13,40,44.00
2014,12,07,13,41,41.70
2014,12,07,13,42,39.00
2014,12,07,13,43,39.30
2014,12,07,13,44,39.50
2014,12,07,13,45,39.00
2014,12,07,13,46,39.70
2014,12,07,13,47,41.70
2014,12,07,13,48,43.60
2014,12,07,13,49,39.30
2014,12,07,13,50,36.30
2014,12,07,13,51,36.00
2014,12,07,13,52,40.00
2014,12,07,13,53,45.70
2014,12,07,13,54,52.10
2014,12,07,13,55,52.60
2014,12,07,13,56,49.90
2014,12,07,13,57,53.00
2014,12,07,13,58,53.50
2014,12,07,13,59,54.00
2014,12,07,14,00,57.00
2014,12,07,14,01,62.30
2014,12,07,14,02,63.00
2014,12,07,14,03,62.80
2014,12,07,14,04,60.70
2014,12,07,14,05,59.00
2014,12,07,14,06,60.00
2014,12,07,14,07,58.50
2014,12,07,14,08,54.60
2014,12,07,14,09,57.80
2014,12,07,14,10,56.00
2014,12,07,14,11,56.70
2014,12,07,14,12,59.00
2014,12,07,14,13,57.60
2014,12,07,14,14,60.40
2014,12,07,14,15,64.60
2014,12,07,14,16,63.20
2014,12,07,14,17,65.00
2014,12,07,14,18,64.00
2014,12,07,14,19,62.50
2014,12,07,14,20,62.40
2014,12,07,14,21,59.00
2014,12,07,14,22,56.30
2014,12,07,14,23,52.40
2014,12,07,14,24,43.60
2014,12,07,14,25,43.50
2014,12,07,14,26,46.50
2014,12,07,14,27,46.40
2014,12,07,14,28,43.00
2014,12,07,14,29,39.50
2014,12,07,14,30,40.10
2014,12,07,14,31,42.40
2014,12,07,14,32,43.30
2014,12,07,14,33,39.60
2014,12,07,14,34,37.00
2014,12,07,14,35,40.50
2014,12,07,14,36,42.00
2014,12,07,14,37,41.80
2014,12,07,14,38,39.80
2014,12,07,14,39,38.30
2014,12,07,14,40,37.00
2014,12,07,14,41,37.00
2014,12,07,14,42,37.00
2014,12,07,14,43,37.00
2014,12,07,14,44,36.80
2014,12,07,14,45,34.50
2014,12,07,14,46,32.70
2014,12,07,14,47,31.00
2014,12,07,14,48,31.20
2014,12,07,14,49,32.00
2014,12,07,14,50,32.00
2014,12,07,14,51,30.00
2014,12,07,14,52,30.40
2014,12,07,14,53,33.10
2014,12,07,14,54,35.00
2014,12,07,14,55,33.80
2014,12,07,14,56,34.50
2014,12,07,14,57,35.00
2014,12,07,14,58,35.00
2014,12,07,14,59,35.40
2014,12,07,15,00,37.00
2014,12,07,15,01,37.90
2014,12,07,15,02,39.00
2014,12,07,15,03,39.00
2014,12,07,15,04,35.60
2014,12,07,15,05,32.00
2014,12,07,15,06,30.00
2014,12,07,15,07,30.00
2014,12,07,15,08,30.00
2014,12,07,15,09,28.80
2014,12,07,15,10,28.00
2014,12,07,15,11,29.70
2014,12,07,15,12,32.00
2014,12,07,15,13,31.10
2014,12,07,15,14,28.00
2014,12,07,15,15,28.00
2014,12,07,15,16,28.00
2014,12,07,15,17,26.60
2014,12,07,15,18,26.00
2014,12,07,15,19,23.30
2014,12,07,15,20,25.00
2014,12,07,15,21,24.30
2014,12,07,15,22,23.00
2014,12,07,15,23,23.00
2014,12,07,15,24,23.00
2014,12,07,15,25,23.00
2014,12,07,15,26,20.90
2014,12,07,15,27,19.00
2014,12,07,15,28,19.00
2014,12,07,15,29,19.00
2014,12,07,15,30,20.20
2014,12,07,15,31,21.00
2014,12,07,15,32,19.30
2014,12,07,15,33,18.00
2014,12,07,15,34,18.00
2014,12,07,15,35,18.00
2014,12,07,15,36,17.00
2014,12,07,15,37,16.00
2014,12,07,15,38,16.00
2014,12,07,15,39,16.00
2014,12,07,15,40,15.80
2014,12,07,15,41,14.00
2014,12,07,15,42,14.00
2014,12,07,15,43,13.00
2014,12,07,15,44,12.00
2014,12,07,15,45,12.00
2014,12,07,15,46,12.00
2014,12,07,15,47,11.90
2014,12,07,15,48,11.00
2014,12,07,15,49,11.00
2014,12,07,15,50,11.00
2014,12,07,15,51,9.80
2014,12,07,15,52,9.00
2014,12,07,15,53,7.30
2014,12,07,15,54,7.00
2014,12,07,15,55,7.00
2014,12,07,15,56,6.30
2014,12,07,15,57,5.00
2014,12,07,15,58,5.00
2014,12,07,15,59,5.00
2014,12,07,16,00,5.00
2014,12,07,16,01,5.00
2014,12,07,16,02,3.90
2014,12,07,16,03,0.00
2014,12,07,16,04,0.00
2014,12,07,16,05,0.00
2014,12,07,16,06,0.00
2014,12,07,16,07,0.00
2014,12,07,16,08,0.00
2014,12,07,16,09,0.00
2014,12,07,16,10,0.00
2014,12,07,16,11,0.00
2014,12,07,16,12,0.00
2014,12,07,16,13,0.00
2014,12,07,16,14,0.00
2014,12,07,16,15,0.00
2014,12,07,16,16,0.00
2014,12,07,16,17,0.00
2014,12,07,16,18,0.00
2014,12,07,16,19,0.00
2014,12,07,16,20,0.00
2014,12,07,16,21,0.00
2014,12,07,16,22,0.00
2014,12,07,16,23,0.00
2014,12,07,16,24,0.00
2014,12,07,16,25,0.00
2014,12,07,16,26,0.00
2014,12,07,16,27,0.00
2014,12,07,16,28,0.00
2014,12,07,16,29,0.00
2014,12,07,16,30,0.00
2014,12,07,16,31,0.00
2014,12,07,16,32,0.00
2014,12,07,16,33,0.00
2014,12,07,16,34,0.00
2014,12,07,16,35,0.00
2014,12,07,16,36,0.00
2014,12,07,16,37,0.00
2014,12,07,16,38,0.00
2014,12,07,16,39,0.00
2014,12,07,16,40,0.00
2014,12,07,16,41,0.00
2014,12,07,16,42,0.00
2014,12,07,16,43,0.00
2014,12,07,16,44,0.00
2014,12,07,16,45,0.00
2014,12,07,16,46,0.00
2014,12,07,16,47,0.00
2014,12,07,16,48,0.00
2014,12,07,16,49,0.00
2014,12,07,16,50,0.00
2014,12,07,16,51,0.00
2014,12,07,16,52,0.00
2014,12,07,16,53,0.00
2014,12,07,16,54,0.00
2014,12,07,16,55,0.00
2014,12,07,16,56,0.00
2014,12,07,16,57,0.00
2014,12,07,16,58,0.00
2014,12,07,16,59,0.00
2014,12,07,17,00,0.00
2014,12,07,17,01,0.00
2014,12,07,17,02,0.00
2014,12,07,17,03,0.00
2014,12,07,17,04,0.00
2014,12,07,17,05,0.00
2014,12,07,17,06,0.00
2014,12,07,17,07,0.00
2014,12,07,17,08,0.00
2014,12,07,17,09,0.00
2014,12,07,17,10,0.00
2014,12,07,17,11,0.00
2014,12,07,17,12,0.00
2014,12,07,17,13,0.00
2014,12,07,17,14,0.00
2014,12,07,17,15,0.00
2014,12,07,17,16,0.00
2014,12,07,17,17,0.00
2014,12,07,17,18,0.00
2014,12,07,17,19,0.00
2014,12,07,17,20,0.00
2014,12,07,17,21,0.00
2014,12,07,17,22,0.00
2014,12,07,17,23,0.00
2014,12,07,17,24,0.00
2014,12,07,17,25,0.00
2014,12,07,17,26,0.00
2014,12,07,17,27,0.00
2014,12,07,17,28,0.00
2014,12,07,17,29,0.00
2014,12,07,17,30,0.00
2014,12,07,17,31,0.00
2014,12,07,17,32,0.00
2014,12,07,17,33,0.00
2014,12,07,17,34,0.00
2014,12,07,17,35,0.00
2014,12,07,17,36,0.00
2014,12,07,17,37,0.00
2014,12,07,17,38,0.00
2014,12,07,17,39,0.00
2014,12,07,17,40,0.00
2014,12,07,17,41,0.00
2014,12,07,17,42,0.00
2014,12,07,17,43,0.00
2014,12,07,17,44,0.00
2014,12,07,17,45,0.00
2014,12,07,17,46,0.00
2014,12,07,17,47,0.00
2014,12,07,17,48,0.00
2014,12,07,17,49,0.00
2014,12,07,17,50,0.00
2014,12,07,17,51,0.00
2014,12,07,17,52,0.00
2014,12,07,17,53,0.00
2014,12,07,17,54,0.00
2014,12,07,17,55,0.00
2014,12,07,17,56,0.00
2014,12,07,17,57,0.00
2014,12,07,17,58,0.00
2014,12,07,17,59,0.00
2014,12,07,18,00,0.00
2014,12,07,18,01,0.00
2014,12,07,18,02,0.00
2014,12,07,18,03,0.00
2014,12,07,18,04,0.00
2014,12,07,18,05,0.00
2014,12,07,18,06,0.00
2014,12,07,18,07,0.00
2014,12,07,18,08,0.00
2014,12,07,18,09,0.00
2014,12,07,18,10,0.00
2014,12,07,18,11,0.00
2014,12,07,18,12,0.00
2014,12,07,18,13,0.00
2014,12,07,18,14,0.00
2014,12,07,18,15,0.00
2014,12,07,18,16,0.00
2014,12,07,18,17,0.00
2014,12,07,18,18,0.00
2014,12,07,18,19,0.00
2014,12,07,18,20,0.00
2014,12,07,18,21,0.00
2014,12,07,18,22,0.00
2014,12,07,18,23,0.00
2014,12,07,18,24,0.00
2014,12,07,18,25,0.00
2014,12,07,18,26,0.00
2014,12,07,18,27,0.00
2014,12,07,18,28,0.00
2014,12,07,18,29,0.00
2014,12,07,18,30,0.00
2014,12,07,18,31,0.00
2014,12,07,18,32,0.00
2014,12,07,18,33,0.00
2014,12,07,18,34,0.00
2014,12,07,18,35,0.00
2014,12,07,18,36,0.00
2014,12,07,18,37,0.00
2014,12,07,18,38,0.00
2014,12,07,18,39,0.00
2014,12,07,18,40,0.00
2014,12,07,18,41,0.00
2014,12,07,18,42,0.00